[[{"header":{"parameterUnit":"m.s-1","parameterCategory":1,"la1":30.2991,"la2":30.254,"lo1":-89.0895,"lo2":-89.0444,"dy":0.0017,"dx":0.0017,"nx":28,"ny":28,"refTime":"2025-12-02T03:00:00:Z","depth":0,"parameterNumber":2,"parameterNumberName":"U-component_of_WINDS"},"data":[0,0,0,0,0,0,0,0,0,0,0,0,0,0,0,0,0,0,0,0,0,0,0,0,0,0,0,0,0,0,0,0,0,0,0,0,0,0,0,0,0,0,0,0,0,0,0,0,0,0,0,0,0,0,0,0,0,0,-0.5586,-0.5587,0,-0.5682,-0.5683,-0.5685,-0.5627,-0.5624,-0.5621,-0.5619,-0.5731,-0.5737,-0.5742,0,0,0,0,0,0,0,0,0,0,0,0,0,-0.5368,-0.5372,-0.5586,-0.5587,-0.5588,-0.5682,-0.5683,-0.5685,-0.5627,-0.5624,-0.5621,-0.5617,-0.5729,-0.5736,-0.5743,0,0,0,0,0,0,0,0,0,0,0,0,0,-0.5464,-0.5373,-0.5586,-0.5571,-0.557,-0.5682,-0.5684,-0.5685,-0.5628,-0.5624,-0.562,-0.5616,-0.5727,-0.5735,-0.5744,-0.588,0,0,-0.5769,-0.5773,0,0,0,0,0,0,0,0,-0.5458,-0.5472,-0.5572,-0.5572,-0.5572,-0.5638,-0.5648,-0.5751,-0.5629,-0.5607,-0.5619,-0.5614,-0.5705,-0.5715,-0.5742,-0.5885,-0.589,-0.577,-0.5775,-0.5779,-0.5781,0,0,0,0,0,0,0,-0.5452,-0.5467,-0.5624,-0.5573,-0.5573,-0.5564,-0.5573,-0.5667,-0.5679,-0.5608,-0.5604,-0.5616,-0.5704,-0.5734,-0.5745,-0.5891,-0.577,-0.5777,-0.5783,-0.5786,-0.6158,-0.6163,0,0,0,0,0,0,-0.5444,-0.5462,-0.5621,-0.5627,-0.5503,-0.5572,-0.5581,-0.5621,-0.5677,-0.5681,-0.5619,-0.5613,-0.5722,-0.5735,-0.5748,-0.5916,-0.5779,-0.5787,-0.5791,-0.6154,-0.616,-0.6165,0,0,0,0,0,0,-0.544,-0.5459,-0.5617,-0.5544,-0.5563,-0.558,-0.5625,-0.5625,-0.5655,-0.5685,-0.5688,-0.5647,-0.5719,-0.5736,-0.5848,-0.5919,-0.579,-0.5798,-0.6148,-0.6155,-0.6162,-0.625,0,0,0,0,0,0,-0.5434,-0.5457,-0.5505,-0.5545,-0.5567,-0.5711,-0.5629,-0.563,-0.5669,-0.5661,-0.5712,-0.5717,-0.5717,-0.5836,-0.5856,-0.5928,-0.5805,-0.6142,-0.6151,-0.616,-0.6241,-0.6259,-0.6275,0,0,0,0,0,-0.5426,-0.5528,-0.5508,-0.5528,-0.5626,-0.5715,-0.5728,-0.5722,-0.5674,-0.5726,-0.5746,-0.5715,-0.5907,-0.5848,-0.587,-0.5946,-0.6137,-0.6149,-0.6159,-0.6233,-0.6255,-0.6274,0,0,0,0,0,0,-0.5499,-0.5532,-0.5511,-0.5627,-0.5668,-0.5705,-0.5769,-0.5745,-0.5804,-0.5795,-0.579,-0.5802,-0.592,-0.5943,-0.5877,-0.6084,-0.6016,-0.6032,-0.6064,-0.6086,-0.6102,-0.6096,-0.5812,0,0,0,0,0,-0.5528,-0.5593,-0.562,-0.5721,-0.5742,-0.5752,-0.579,-0.5782,-0.5826,-0.5845,-0.5872,-0.5921,-0.5993,-0.604,-0.6107,-0.6243,-0.6258,-0.6307,-0.6324,-0.6338,-0.6353,-0.6434,-0.6458,-0.6201,-0.6201,-0.62,0,0,-0.5591,-0.5617,-0.5658,-0.5736,-0.5767,-0.5839,-0.5767,-0.5845,-0.5901,-0.5858,-0.5965,-0.5988,-0.6042,-0.6168,-0.6225,-0.6192,-0.6427,-0.6352,-0.6363,-0.6371,-0.6448,-0.6472,-0.6494,-0.6208,-0.6207,-0.6206,0,0,-0.5741,-0.5765,-0.5853,-0.5886,-0.5932,-0.5939,-0.5961,-0.6001,-0.6014,-0.612,-0.6091,-0.616,-0.6282,-0.6323,-0.636,-0.6531,-0.6509,-0.6554,-0.6644,-0.6723,-0.6743,-0.6762,-0.6828,-0.6852,-0.6568,-0.6568,-0.6568,0,-0.5814,-0.5916,-0.5903,-0.5985,-0.6023,-0.5984,-0.6078,-0.6111,-0.6179,-0.6209,-0.617,-0.6325,-0.6358,-0.6496,-0.6538,-0.6568,-0.6598,-0.6549,-0.674,-0.6759,-0.6776,-0.6839,-0.6864,-0.6574,-0.6573,-0.6572,-0.6572,0,-0.6006,-0.6079,-0.6146,-0.621,-0.6255,-0.6343,-0.6348,-0.6397,-0.6386,-0.6399,-0.6512,-0.6551,-0.6628,-0.6659,-0.665,-0.6799,-0.6777,-0.6739,-0.6671,-0.6806,-0.6866,-0.689,-0.6582,-0.658,-0.6578,-0.6577,0,0,-0.6205,-0.6262,-0.6287,-0.6318,-0.6369,-0.6427,-0.6516,-0.6587,-0.6632,-0.6682,-0.6761,-0.6866,-0.6833,-0.6875,-0.6871,-0.6939,-0.708,-0.6894,-0.6895,-0.6932,-0.7254,-0.7285,-0.7313,-0.7064,-0.7068,-0.7072,-0.7251,0,-0.6363,-0.6512,-0.6505,-0.6648,-0.6719,-0.6685,-0.6763,-0.6806,-0.6822,-0.6889,-0.6908,-0.6985,-0.6931,-0.6958,-0.7023,-0.7048,-0.7145,-0.7035,-0.7144,-0.7148,-0.7135,-0.7343,-0.7375,-0.7542,-0.7274,-0.7278,-0.728,0,-0.6565,-0.662,-0.6769,-0.6813,-0.6843,-0.6912,-0.6981,-0.7042,-0.7094,-0.7101,-0.7149,-0.7136,-0.7233,-0.7159,-0.7297,-0.7223,-0.7267,-0.7287,-0.7294,-0.7307,-0.7225,-0.7367,-0.7595,-0.7622,-0.7316,-0.7314,-0.7311,0,-0.6702,-0.6813,-0.6917,-0.6944,-0.6997,-0.7048,-0.7074,-0.712,-0.7165,-0.7226,-0.7257,-0.733,-0.7372,-0.7432,-0.7441,-0.7386,-0.7583,-0.7508,-0.7597,-0.7598,-0.7643,-0.7641,-0.7886,-0.7664,-0.7664,-0.7663,-0.7663,0,-0.6881,-0.6975,-0.698,-0.7045,-0.7152,-0.7145,-0.7253,-0.7274,-0.7317,-0.739,-0.7366,-0.7437,-0.7442,-0.7517,-0.7525,-0.7642,-0.766,-0.7674,-0.7676,-0.7678,-0.7677,-0.771,-0.7701,-0.767,-0.7668,-0.7667,-0.7666,0,-0.7052,-0.7058,-0.7171,-0.7212,-0.7225,-0.7303,-0.7341,-0.7407,-0.742,-0.7514,-0.7536,-0.756,-0.7647,-0.7661,-0.7765,-0.7771,-0.7913,-0.79,-0.7894,-0.7894,-0.7984,-0.7978,-0.8263,-0.8303,-0.8051,-0.8053,-0.8055,0,-0.7167,-0.7239,-0.7288,-0.7333,-0.7361,-0.7434,-0.748,-0.7479,-0.7529,-0.7595,-0.7654,-0.7738,-0.7805,-0.7948,-0.7979,-0.806,-0.8052,-0.8147,-0.8065,-0.8067,-0.8061,-0.8058,-0.8068,-0.8164,-0.8167,-0.8169,-0.8171,0,-0.7373,-0.7374,-0.7438,-0.7506,-0.7561,-0.7615,-0.7666,-0.7707,-0.7713,-0.7771,-0.7858,-0.791,-0.8016,-0.8103,-0.8184,-0.8217,-0.8199,-0.8196,-0.8222,-0.8227,-0.8223,-0.8232,-0.7943,-0.819,-0.8188,-0.8187,-0.8186,-0.8185,-0.7524,-0.7588,-0.7633,-0.7708,-0.7746,-0.7795,-0.786,-0.7882,-0.7953,-0.8036,-0.8032,-0.813,-0.8186,-0.8292,-0.8331,-0.8412,-0.8382,-0.8418,-0.8428,-0.8438,-0.845,-0.8206,-0.8426,-0.8426,-0.8425,-0.8425,-0.8424,0,-0.7733,-0.776,-0.7829,-0.7901,-0.7962,-0.7933,-0.799,-0.8045,-0.8129,-0.818,-0.8247,-0.8352,-0.8436,-0.8474,-0.856,-0.8618,-0.8612,-0.8641,-0.8639,-0.8649,-0.8468,-0.844,-0.8645,-0.8645,-0.8645,-0.8645,-0.8645,-0.8645,-0.7849,-0.7957,-0.7964,-0.8094,-0.8123,-0.8215,-0.8251,-0.8299,-0.8341,-0.8456,-0.8525,-0.8548,-0.8596,-0.8686,-0.8765,-0.8775,-0.881,-0.8845,-0.8851,-0.8683,-0.8661,-0.8639,-0.8613,-0.8851,-0.8851,-0.9025,-0.9027,-0.9028]},{"header":{"parameterUnit":"m.s-1","parameterCategory":1,"la1":30.2991,"la2":30.254,"lo1":-89.0895,"lo2":-89.0444,"dy":0.0017,"dx":0.0017,"nx":28,"ny":28,"refTime":"2025-12-02T03:00:00:Z","depth":0,"parameterNumber":3,"parameterNumberName":"V-component_of_WINDS"},"data":[0,0,0,0,0,0,0,0,0,0,0,0,0,0,0,0,0,0,0,0,0,0,0,0,0,0,0,0,0,0,0,0,0,0,0,0,0,0,0,0,0,0,0,0,0,0,0,0,0,0,0,0,0,0,0,0,0,0,-5.9376,-5.9375,0,-5.9333,-5.9332,-5.9332,-5.9216,-5.9213,-5.9211,-5.9208,-5.9166,-5.9167,-5.9169,0,0,0,0,0,0,0,0,0,0,0,0,0,-5.9358,-5.9359,-5.9376,-5.9375,-5.9375,-5.9333,-5.9332,-5.9332,-5.9216,-5.9213,-5.921,-5.9207,-5.9166,-5.9167,-5.9169,0,0,0,0,0,0,0,0,0,0,0,0,0,-5.9345,-5.9359,-5.9376,-5.9312,-5.9306,-5.9333,-5.9332,-5.9332,-5.9217,-5.9213,-5.9209,-5.9206,-5.9165,-5.9167,-5.9169,-5.9255,0,0,-5.9174,-5.9175,0,0,0,0,0,0,0,0,-5.9346,-5.9346,-5.9322,-5.9316,-5.9309,-5.9276,-5.931,-5.9306,-5.9218,-5.9251,-5.9208,-5.9204,-5.9206,-5.9204,-5.9204,-5.9253,-5.9251,-5.9175,-5.9176,-5.9176,-5.9177,0,0,0,0,0,0,0,-5.9347,-5.9347,-5.9359,-5.9322,-5.9314,-5.9285,-5.928,-5.9309,-5.925,-5.9248,-5.9239,-5.9235,-5.9202,-5.9203,-5.9202,-5.9251,-5.9175,-5.9176,-5.9177,-5.9178,-5.9366,-5.9369,0,0,0,0,0,0,-5.9357,-5.9349,-5.936,-5.9357,-5.9319,-5.9289,-5.9282,-5.929,-5.9249,-5.9239,-5.9239,-5.923,-5.9202,-5.92,-5.9201,-5.9297,-5.9176,-5.9178,-5.9179,-5.9362,-5.9367,-5.9371,0,0,0,0,0,0,-5.9357,-5.9359,-5.9362,-5.9351,-5.9349,-5.9293,-5.9303,-5.9292,-5.9292,-5.9242,-5.9231,-5.9251,-5.9199,-5.9198,-5.9242,-5.9294,-5.9179,-5.9181,-5.9357,-5.9363,-5.9369,-5.9491,0,0,0,0,0,0,-5.9357,-5.936,-5.9392,-5.9352,-5.935,-5.9404,-5.9307,-5.9293,-5.9296,-5.9284,-5.9251,-5.9242,-5.9196,-5.924,-5.9244,-5.9294,-5.9182,-5.9352,-5.936,-5.9367,-5.9482,-5.9501,-5.9516,0,0,0,0,0,-5.9357,-5.9429,-5.9394,-5.9396,-5.9389,-5.9407,-5.9406,-5.9351,-5.9301,-5.9332,-5.93,-5.9243,-5.9288,-5.9245,-5.9249,-5.93,-5.9349,-5.9358,-5.9366,-5.9475,-5.9497,-5.9516,0,0,0,0,0,0,-5.9477,-5.9423,-5.9384,-5.9445,-5.9432,-5.9388,-5.9426,-5.9377,-5.9378,-5.9367,-5.9299,-5.9293,-5.9345,-5.9327,-5.9281,-5.9381,-5.9309,-5.9319,-5.939,-5.9411,-5.9428,-5.943,-5.9183,0,0,0,0,0,-5.9511,-5.953,-5.9482,-5.9541,-5.9536,-5.9483,-5.9488,-5.9447,-5.9431,-5.9424,-5.9395,-5.9382,-5.9392,-5.9401,-5.9408,-5.948,-5.947,-5.9517,-5.9534,-5.9548,-5.9557,-5.9591,-5.9611,-5.94,-5.9399,-5.9399,0,0,-5.9581,-5.9553,-5.957,-5.9564,-5.9549,-5.957,-5.9478,-5.9505,-5.952,-5.9428,-5.9467,-5.9446,-5.9426,-5.9483,-5.9507,-5.947,-5.9613,-5.9559,-5.9571,-5.9572,-5.9602,-5.9622,-5.964,-5.9406,-5.9404,-5.9403,0,0,-5.9718,-5.97,-5.9746,-5.9732,-5.971,-5.9674,-5.9685,-5.9648,-5.963,-5.9668,-5.9599,-5.9616,-5.9637,-5.9624,-5.9621,-5.9753,-5.97,-5.9758,-5.9846,-5.988,-5.9897,-5.9911,-5.9956,-5.9974,-5.9767,-5.9768,-5.9768,0,-5.9808,-5.9836,-5.9776,-5.9806,-5.9805,-5.9723,-5.9769,-5.9759,-5.974,-5.9741,-5.97,-5.9723,-5.9704,-5.9756,-5.9788,-5.9789,-5.9799,-5.9761,-5.9899,-5.9913,-5.9926,-5.9968,-5.9985,-5.9774,-5.9774,-5.9773,-5.9772,0,-5.9947,-5.9968,-6.0008,-5.999,-5.9994,-6.0032,-5.9978,-5.9989,-5.9947,-5.9915,-5.9954,-5.9929,-5.9928,-5.9938,-5.9899,-5.9985,-5.9962,-5.9911,-5.9837,-5.9954,-5.9992,-6.0008,-5.9784,-5.9782,-5.978,-5.9778,0,0,-6.0158,-6.0107,-6.0122,-6.0112,-6.0081,-6.0096,-6.013,-6.0129,-6.0139,-6.013,-6.0155,-6.0174,-6.0126,-6.0123,-6.0081,-6.0112,-6.0215,-6.0056,-6.0055,-6.0085,-6.0306,-6.0343,-6.0363,-6.0181,-6.0183,-6.0186,-6.0307,0,-6.0286,-6.034,-6.0287,-6.0352,-6.0369,-6.0291,-6.0321,-6.0305,-6.0276,-6.0287,-6.0255,-6.0269,-6.0206,-6.0203,-6.023,-6.0197,-6.0258,-6.0188,-6.0203,-6.0204,-6.0208,-6.0383,-6.0423,-6.0539,-6.0322,-6.0325,-6.0326,0,-6.0442,-6.0438,-6.0505,-6.0467,-6.0473,-6.05,-6.0494,-6.0506,-6.0486,-6.0462,-6.0458,-6.0407,-6.0438,-6.0367,-6.0407,-6.036,-6.0363,-6.0349,-6.0352,-6.0349,-6.0271,-6.0384,-6.0575,-6.0591,-6.035,-6.0348,-6.0346,0,-6.0587,-6.0599,-6.0639,-6.0634,-6.0592,-6.0613,-6.0596,-6.0573,-6.0575,-6.057,-6.057,-6.057,-6.0569,-6.057,-6.052,-6.0473,-6.0565,-6.0491,-6.0546,-6.0547,-6.0568,-6.0567,-6.0759,-6.0574,-6.0573,-6.0573,-6.0573,0,-6.0734,-6.0778,-6.0703,-6.0728,-6.0774,-6.0712,-6.0759,-6.0735,-6.0715,-6.0733,-6.0667,-6.0685,-6.0619,-6.0631,-6.0592,-6.063,-6.0631,-6.0613,-6.0601,-6.0617,-6.0619,-6.0617,-6.0607,-6.0578,-6.0577,-6.0576,-6.0575,0,-6.0903,-6.0855,-6.0894,-6.0851,-6.0841,-6.0877,-6.084,-6.0861,-6.0828,-6.0852,-6.0854,-6.0802,-6.0812,-6.0763,-6.0765,-6.0739,-6.0795,-6.0772,-6.0802,-6.0794,-6.0851,-6.0845,-6.1047,-6.107,-6.0872,-6.0874,-6.0876,0,-6.0999,-6.103,-6.099,-6.0997,-6.0984,-6.0997,-6.0998,-6.0939,-6.0943,-6.0922,-6.0946,-6.095,-6.0951,-6.0971,-6.0933,-6.0934,-6.0909,-6.0979,-6.0908,-6.0923,-6.0907,-6.0905,-6.0907,-6.0994,-6.0996,-6.0998,-6.1,0,-6.1174,-6.1148,-6.1153,-6.1149,-6.1152,-6.1147,-6.1136,-6.1146,-6.1082,-6.109,-6.1099,-6.11,-6.1101,-6.1106,-6.1099,-6.1082,-6.103,-6.1023,-6.1035,-6.105,-6.1066,-6.1056,-6.084,-6.1018,-6.1016,-6.1015,-6.1014,-6.1013,-6.1308,-6.1331,-6.1306,-6.1312,-6.1298,-6.129,-6.1307,-6.1275,-6.1282,-6.1277,-6.1242,-6.1258,-6.1236,-6.1221,-6.1209,-6.122,-6.1186,-6.1205,-6.1209,-6.1214,-6.1223,-6.1066,-6.1219,-6.1218,-6.1218,-6.1217,-6.1217,0,-6.1477,-6.1457,-6.1464,-6.1451,-6.1456,-6.1407,-6.1392,-6.14,-6.1414,-6.1398,-6.1399,-6.1409,-6.1413,-6.1376,-6.1375,-6.1391,-6.1367,-6.1393,-6.139,-6.1387,-6.1254,-6.1243,-6.1412,-6.1412,-6.1412,-6.1412,-6.1412,-6.1412,-6.1565,-6.1601,-6.1573,-6.1601,-6.158,-6.1594,-6.159,-6.1582,-6.1568,-6.1582,-6.1585,-6.156,-6.1535,-6.1532,-6.1533,-6.1522,-6.1524,-6.1558,-6.1538,-6.1415,-6.1396,-6.1378,-6.1367,-6.1559,-6.1559,-6.1669,-6.167,-6.1671]}]]